Voltar ao catálogo

METEOR 2-5 DEB

AtivoPO
NORAD 28973·DEBRIS·🇷🇺 Russia

Lançado Oct 31, 1979 de Plesetsk Cosmodrome

Loading…

Próximas Passagens (próximas 24 horas)

TLE

AtualizadoSource: Space-Track

Época: Sep 14, 2026, 06:10 UTC

1 28973U 79095J   26257.25721080  .00004726  00000-0  12816-2 0  9995
2 28973  81.1980 357.8574 0011324 181.0363 179.0807 14.47498677119965

Acompanhe METEOR 2-5 DEB em tempo real com AllMySat

Download on the App Store